Time,TemperatureF,DewpointF,PressureIn,WindDirection,WindDirectionDegrees,WindSpeedMPH,WindSpeedGustMPH,Humidity,HourlyPrecipIn,Conditions,Clouds,dailyrainin,SoftwareType,DateUTC
2013-02-11 00:02:00,14.0,10.0,30.42,East,96,0.0,0.0,82,0.00,,,0.12,,2013-02-11 05:02:00,
2013-02-11 00:12:00,13.0,9.0,30.42,East,96,0.0,0.0,83,0.00,,,0.12,,2013-02-11 05:12:00,
2013-02-11 00:22:00,13.0,9.0,30.42,East,96,0.0,0.0,83,0.00,,,0.12,,2013-02-11 05:22:00,
2013-02-11 00:32:00,13.0,9.0,30.42,East,96,0.0,0.0,83,0.00,,,0.12,,2013-02-11 05:32:00,
2013-02-11 00:42:00,13.0,9.0,30.42,East,96,0.0,0.0,83,0.00,,,0.12,,2013-02-11 05:42:00,
2013-02-11 00:53:00,12.0,8.0,30.42,East,96,0.0,1.0,84,0.00,,,0.12,,2013-02-11 05:53:00,
2013-02-11 01:02:00,12.0,8.0,30.42,East,96,0.0,1.0,84,0.00,,,0.12,,2013-02-11 06:02:00,
2013-02-11 01:12:00,12.0,8.0,30.42,East,96,0.0,1.0,84,0.00,,,0.12,,2013-02-11 06:12:00,
2013-02-11 01:22:00,12.0,8.0,30.40,East,96,0.0,0.0,85,0.00,,,0.12,,2013-02-11 06:22:00,
2013-02-11 01:32:00,12.0,8.0,30.40,East,96,0.0,0.0,85,0.00,,,0.12,,2013-02-11 06:32:00,
2013-02-11 01:42:00,13.0,9.0,30.40,East,96,0.0,0.0,85,0.00,,,0.12,,2013-02-11 06:42:00,
2013-02-11 01:52:00,13.0,9.0,30.40,East,96,0.0,0.0,85,0.00,,,0.12,,2013-02-11 06:52:00,
2013-02-11 02:01:00,13.0,9.0,30.40,East,96,0.0,0.0,85,0.00,,,0.12,,2013-02-11 07:01:00,
2013-02-11 02:12:00,13.0,9.0,30.37,East,96,0.0,0.0,85,0.00,,,0.12,,2013-02-11 07:12:00,
2013-02-11 02:22:00,13.0,9.0,30.37,East,96,0.0,0.0,85,0.00,,,0.12,,2013-02-11 07:22:00,
2013-02-11 02:32:00,13.0,9.0,30.37,East,96,0.0,0.0,85,0.00,,,0.12,,2013-02-11 07:32:00,
2013-02-11 02:42:00,13.0,9.0,30.36,East,96,0.0,0.0,85,0.00,,,0.12,,2013-02-11 07:42:00,
2013-02-11 02:52:00,13.0,9.0,30.36,East,96,0.0,0.0,85,0.00,,,0.12,,2013-02-11 07:52:00,
2013-02-11 03:01:00,13.0,9.0,30.36,East,96,0.0,0.0,85,0.00,,,0.12,,2013-02-11 08:01:00,
2013-02-11 03:11:00,13.0,9.0,30.36,East,96,0.0,0.0,85,0.00,,,0.12,,2013-02-11 08:11:00,
2013-02-11 03:21:00,13.0,9.0,30.36,East,96,0.0,0.0,85,0.00,,,0.12,,2013-02-11 08:21:00,
2013-02-11 03:32:00,13.0,9.0,30.36,East,96,0.0,0.0,85,0.00,,,0.12,,2013-02-11 08:32:00,
2013-02-11 04:52:00,16.0,12.0,30.33,East,96,0.0,0.0,85,0.00,,,0.12,,2013-02-11 09:52:00,
2013-02-11 05:02:00,16.0,12.0,30.33,East,96,0.0,0.0,85,0.00,,,0.12,,2013-02-11 10:02:00,
2013-02-11 05:11:00,16.0,12.0,30.33,East,96,0.0,0.0,85,0.00,,,0.12,,2013-02-11 10:11:00,
2013-02-11 05:21:00,17.0,13.0,30.31,East,96,0.0,0.0,83,0.00,,,0.12,,2013-02-11 10:21:00,
2013-02-11 05:32:00,17.0,13.0,30.31,East,96,0.0,0.0,83,0.00,,,0.12,,2013-02-11 10:32:00,
2013-02-11 05:42:00,17.0,13.0,30.31,East,96,0.0,0.0,83,0.00,,,0.12,,2013-02-11 10:42:00,
2013-02-11 05:52:00,18.0,14.0,30.31,East,96,0.0,0.0,84,0.00,,,0.12,,2013-02-11 10:52:00,
2013-02-11 06:02:00,18.0,14.0,30.31,East,96,0.0,0.0,84,0.00,,,0.12,,2013-02-11 11:02:00,
2013-02-11 06:11:00,18.0,14.0,30.31,East,96,0.0,0.0,84,0.00,,,0.12,,2013-02-11 11:11:00,
2013-02-11 06:22:00,18.0,14.0,30.32,East,96,0.0,0.0,84,0.00,,,0.12,,2013-02-11 11:22:00,
2013-02-11 06:32:00,18.0,14.0,30.32,East,96,0.0,0.0,84,0.00,,,0.12,,2013-02-11 11:32:00,
2013-02-11 06:42:00,18.0,14.0,30.32,East,96,0.0,0.0,84,0.00,,,0.12,,2013-02-11 11:42:00,
2013-02-11 06:52:00,20.0,16.0,30.30,East,96,0.0,0.0,84,0.00,,,0.12,,2013-02-11 11:52:00,
2013-02-11 07:03:00,20.0,16.0,30.30,East,96,0.0,0.0,84,0.00,,,0.12,,2013-02-11 12:03:00,
2013-02-11 07:12:00,20.0,16.0,30.30,East,96,0.0,0.0,84,0.00,,,0.12,,2013-02-11 12:12:00,
2013-02-11 07:22:00,21.0,17.0,30.29,East,96,0.0,0.0,83,0.00,,,0.12,,2013-02-11 12:22:00,
2013-02-11 07:32:00,21.0,17.0,30.29,East,96,0.0,0.0,83,0.00,,,0.12,,2013-02-11 12:32:00,
2013-02-11 07:42:00,22.0,17.0,30.27,East,96,0.0,0.0,82,0.00,,,0.12,,2013-02-11 12:42:00,
2013-02-11 07:52:00,22.0,17.0,30.27,East,96,0.0,0.0,82,0.00,,,0.12,,2013-02-11 12:52:00,
2013-02-11 08:02:00,22.0,17.0,30.27,East,96,0.0,0.0,82,0.00,,,0.12,,2013-02-11 13:02:00,
2013-02-11 08:12:00,23.0,17.0,30.26,East,96,0.0,0.0,78,0.00,,,0.12,,2013-02-11 13:12:00,
2013-02-11 08:22:00,23.0,17.0,30.26,East,96,0.0,0.0,78,0.00,,,0.12,,2013-02-11 13:22:00,
2013-02-11 08:33:00,23.0,17.0,30.26,East,96,0.0,0.0,78,0.00,,,0.12,,2013-02-11 13:33:00,
2013-02-11 08:42:00,23.0,17.0,30.26,East,96,0.0,0.0,78,0.00,,,0.12,,2013-02-11 13:42:00,
2013-02-11 08:52:00,25.0,17.0,30.24,East,96,0.0,1.0,72,0.00,,,0.12,,2013-02-11 13:52:00,
2013-02-11 09:02:00,25.0,17.0,30.24,East,96,0.0,1.0,72,0.00,,,0.12,,2013-02-11 14:02:00,
2013-02-11 09:12:00,25.0,17.0,30.24,East,96,0.0,1.0,72,0.00,,,0.12,,2013-02-11 14:12:00,
2013-02-11 09:22:00,26.0,19.0,30.21,SW,221,0.0,3.0,74,0.00,,,0.12,,2013-02-11 14:22:00,
2013-02-11 09:33:00,26.0,19.0,30.21,SW,221,0.0,3.0,74,0.00,,,0.12,,2013-02-11 14:33:00,
2013-02-11 09:42:00,26.0,19.0,30.21,SW,221,0.0,3.0,74,0.00,,,0.12,,2013-02-11 14:42:00,
2013-02-11 09:53:00,27.0,21.0,30.18,West,266,1.0,3.0,77,0.00,,,0.12,,2013-02-11 14:53:00,
2013-02-11 10:02:00,27.0,21.0,30.18,West,266,1.0,3.0,77,0.00,,,0.12,,2013-02-11 15:02:00,
2013-02-11 10:11:00,27.0,21.0,30.18,West,266,1.0,3.0,77,0.00,,,0.12,,2013-02-11 15:11:00,
2013-02-11 10:22:00,28.0,23.0,30.16,WSW,246,0.0,2.0,80,0.00,,,0.12,,2013-02-11 15:22:00,
2013-02-11 10:32:00,28.0,23.0,30.16,WSW,246,0.0,2.0,80,0.00,,,0.12,,2013-02-11 15:32:00,
2013-02-11 10:42:00,28.0,24.0,30.14,WSW,246,0.0,0.0,84,0.00,,,0.12,,2013-02-11 15:42:00,
2013-02-11 10:52:00,28.0,24.0,30.14,WSW,246,0.0,0.0,84,0.00,,,0.12,,2013-02-11 15:52:00,
2013-02-11 11:02:00,28.0,24.0,30.14,WSW,246,0.0,0.0,84,0.00,,,0.12,,2013-02-11 16:02:00,
2013-02-11 11:12:00,28.0,24.0,30.14,WSW,246,0.0,0.0,84,0.00,,,0.12,,2013-02-11 16:12:00,
2013-02-11 11:22:00,30.0,27.0,30.11,WSW,246,0.0,1.0,87,0.00,,,0.12,,2013-02-11 16:22:00,
2013-02-11 11:32:00,30.0,27.0,30.11,WSW,246,0.0,1.0,87,0.00,,,0.12,,2013-02-11 16:32:00,
2013-02-11 11:42:00,30.0,27.0,30.07,WSW,246,0.0,0.0,89,0.00,,,0.12,,2013-02-11 16:42:00,
2013-02-11 11:53:00,30.0,27.0,30.07,WSW,246,0.0,0.0,89,0.00,,,0.12,,2013-02-11 16:53:00,
2013-02-11 12:02:00,30.0,27.0,30.07,WSW,246,0.0,0.0,89,0.00,,,0.12,,2013-02-11 17:02:00,
2013-02-11 12:12:00,30.0,27.0,30.07,WSW,246,0.0,0.0,89,0.00,,,0.12,,2013-02-11 17:12:00,
2013-02-11 12:22:00,31.0,28.0,30.03,WSW,246,0.0,0.0,90,0.00,,,0.10,,2013-02-11 17:22:00,
2013-02-11 12:32:00,31.0,28.0,30.03,WSW,246,0.0,0.0,90,0.00,,,0.10,,2013-02-11 17:32:00,
2013-02-11 12:42:00,31.0,28.0,30.03,WSW,246,0.0,0.0,90,0.00,,,0.10,,2013-02-11 17:42:00,
2013-02-11 12:53:00,32.0,30.0,29.99,WSW,246,0.0,0.0,91,0.00,,,0.10,,2013-02-11 17:53:00,
2013-02-11 13:02:00,32.0,30.0,29.99,WSW,246,0.0,0.0,91,0.00,,,0.10,,2013-02-11 18:02:00,
2013-02-11 13:11:00,32.0,30.0,29.99,WSW,246,0.0,0.0,91,0.00,,,0.10,,2013-02-11 18:11:00,
2013-02-11 13:22:00,32.0,30.0,29.96,WSW,246,0.0,0.0,92,0.02,,,0.11,,2013-02-11 18:22:00,
2013-02-11 13:32:00,32.0,30.0,29.96,WSW,246,0.0,0.0,92,0.02,,,0.11,,2013-02-11 18:32:00,
2013-02-11 13:42:00,32.0,30.0,29.96,WSW,246,0.0,0.0,92,0.02,,,0.11,,2013-02-11 18:42:00,
2013-02-11 13:54:00,33.0,31.0,29.92,WSW,246,0.0,0.0,92,0.06,,,0.15,,2013-02-11 18:54:00,
2013-02-11 14:02:00,33.0,31.0,29.92,WSW,246,0.0,0.0,92,0.06,,,0.15,,2013-02-11 19:02:00,
2013-02-11 14:12:00,33.0,31.0,29.92,WSW,246,0.0,0.0,92,0.06,,,0.15,,2013-02-11 19:12:00,
2013-02-11 14:22:00,33.0,31.0,29.90,ENE,77,0.0,1.0,93,0.06,,,0.14,,2013-02-11 19:22:00,
2013-02-11 14:32:00,33.0,31.0,29.90,ENE,77,0.0,1.0,93,0.06,,,0.14,,2013-02-11 19:32:00,
2013-02-11 14:42:00,33.0,31.0,29.90,ENE,77,0.0,1.0,93,0.06,,,0.14,,2013-02-11 19:42:00,
2013-02-11 14:52:00,32.0,30.0,29.88,East,94,0.0,3.0,93,0.03,,,0.15,,2013-02-11 19:52:00,
2013-02-11 15:02:00,32.0,30.0,29.88,East,94,0.0,3.0,93,0.03,,,0.15,,2013-02-11 20:02:00,
2013-02-11 15:11:00,32.0,30.0,29.88,ENE,65,1.0,4.0,93,0.02,,,0.12,,2013-02-11 20:11:00,
2013-02-11 15:22:00,32.0,30.0,29.88,ENE,65,1.0,4.0,93,0.02,,,0.12,,2013-02-11 20:22:00,
2013-02-11 15:32:00,32.0,30.0,29.88,ENE,65,1.0,4.0,93,0.02,,,0.12,,2013-02-11 20:32:00,
2013-02-11 15:42:00,31.0,29.0,29.86,SE,129,1.0,3.0,94,0.03,,,0.14,,2013-02-11 20:42:00,
2013-02-11 15:52:00,31.0,29.0,29.86,SE,129,1.0,3.0,94,0.03,,,0.14,,2013-02-11 20:52:00,
2013-02-11 16:02:00,31.0,29.0,29.86,SE,129,1.0,3.0,94,0.03,,,0.14,,2013-02-11 21:02:00,
2013-02-11 16:12:00,31.0,29.0,29.84,ESE,115,0.0,1.0,94,0.05,,,0.16,,2013-02-11 21:12:00,
2013-02-11 16:22:00,31.0,29.0,29.84,ESE,115,0.0,1.0,94,0.05,,,0.16,,2013-02-11 21:22:00,
2013-02-11 16:32:00,31.0,29.0,29.84,ESE,115,0.0,1.0,94,0.05,,,0.16,,2013-02-11 21:32:00,
2013-02-11 16:42:00,31.0,29.0,29.84,ESE,115,0.0,1.0,94,0.05,,,0.16,,2013-02-11 21:42:00,
2013-02-11 16:52:00,31.0,29.0,29.81,East,90,0.0,0.0,94,0.04,,,0.17,,2013-02-11 21:52:00,
2013-02-11 17:02:00,31.0,29.0,29.81,East,90,0.0,0.0,94,0.04,,,0.17,,2013-02-11 22:02:00,
2013-02-11 17:12:00,32.0,30.0,29.79,East,90,0.0,0.0,94,0.01,,,0.16,,2013-02-11 22:12:00,
2013-02-11 17:22:00,32.0,30.0,29.79,East,90,0.0,0.0,94,0.01,,,0.16,,2013-02-11 22:22:00,
2013-02-11 17:32:00,32.0,30.0,29.79,East,90,0.0,0.0,94,0.01,,,0.16,,2013-02-11 22:32:00,
2013-02-11 17:42:00,32.0,30.0,29.79,East,90,0.0,0.0,94,0.01,,,0.16,,2013-02-11 22:42:00,
2013-02-11 17:52:00,32.0,30.0,29.78,East,90,0.0,0.0,94,0.00,,,0.16,,2013-02-11 22:52:00,
2013-02-11 18:02:00,32.0,30.0,29.78,East,90,0.0,0.0,94,0.00,,,0.16,,2013-02-11 23:02:00,
2013-02-11 18:12:00,32.0,30.0,29.78,East,90,0.0,0.0,94,0.00,,,0.16,,2013-02-11 23:12:00,
2013-02-11 18:22:00,32.0,31.0,29.78,East,90,0.0,0.0,95,0.00,,,0.16,,2013-02-11 23:22:00,
2013-02-11 18:32:00,32.0,31.0,29.78,East,90,0.0,0.0,95,0.00,,,0.16,,2013-02-11 23:32:00,
2013-02-11 18:42:00,32.0,31.0,29.78,East,90,0.0,0.0,95,0.00,,,0.16,,2013-02-11 23:42:00,
2013-02-11 18:52:00,32.0,31.0,29.77,East,90,0.0,0.0,95,0.00,,,0.16,,2013-02-11 23:52:00,
2013-02-11 19:02:00,32.0,31.0,29.77,East,90,0.0,0.0,95,0.00,,,0.16,,2013-02-12 00:02:00,
2013-02-11 19:12:00,32.0,31.0,29.77,East,90,0.0,0.0,95,0.00,,,0.16,,2013-02-12 00:12:00,
2013-02-11 19:22:00,32.0,31.0,29.77,East,90,0.0,0.0,95,0.00,,,0.16,,2013-02-12 00:22:00,
2013-02-11 19:32:00,32.0,31.0,29.77,East,90,0.0,0.0,95,0.00,,,0.16,,2013-02-12 00:32:00,
2013-02-11 19:42:00,32.0,31.0,29.77,East,90,0.0,0.0,95,0.00,,,0.16,,2013-02-12 00:42:00,
2013-02-11 19:52:00,32.0,31.0,29.75,ESE,105,0.0,0.0,95,0.00,,,0.16,,2013-02-12 00:52:00,
2013-02-11 20:02:00,32.0,31.0,29.75,ESE,105,0.0,0.0,95,0.00,,,0.16,,2013-02-12 01:02:00,
2013-02-11 20:12:00,32.0,31.0,29.75,ESE,105,0.0,0.0,95,0.00,,,0.16,,2013-02-12 01:12:00,
2013-02-11 20:22:00,32.0,31.0,29.73,ESE,105,0.0,0.0,95,0.00,,,0.16,,2013-02-12 01:22:00,
2013-02-11 20:32:00,32.0,31.0,29.73,ESE,105,0.0,0.0,95,0.00,,,0.16,,2013-02-12 01:32:00,
2013-02-11 20:42:00,32.0,31.0,29.73,ESE,105,0.0,0.0,95,0.00,,,0.16,,2013-02-12 01:42:00,
2013-02-11 20:52:00,32.0,31.0,29.72,ESE,105,0.0,0.0,95,0.00,,,0.16,,2013-02-12 01:52:00,
2013-02-11 21:02:00,32.0,31.0,29.72,ESE,105,0.0,0.0,95,0.00,,,0.16,,2013-02-12 02:02:00,
2013-02-11 21:12:00,32.0,31.0,29.72,ESE,105,0.0,0.0,95,0.00,,,0.16,,2013-02-12 02:12:00,
2013-02-11 21:22:00,32.0,31.0,29.71,ESE,105,0.0,0.0,95,0.01,,,0.17,,2013-02-12 02:22:00,
2013-02-11 21:32:00,32.0,31.0,29.71,ESE,105,0.0,0.0,95,0.01,,,0.17,,2013-02-12 02:32:00,
2013-02-11 21:42:00,32.0,31.0,29.71,ESE,105,0.0,0.0,95,0.01,,,0.17,,2013-02-12 02:42:00,
2013-02-11 21:53:00,32.0,31.0,29.72,East,80,0.0,0.0,95,0.01,,,0.17,,2013-02-12 02:53:00,
2013-02-11 22:02:00,32.0,31.0,29.72,East,80,0.0,0.0,95,0.01,,,0.17,,2013-02-12 03:02:00,
2013-02-11 22:11:00,32.0,31.0,29.72,East,80,0.0,0.0,95,0.01,,,0.17,,2013-02-12 03:11:00,
2013-02-11 22:21:00,32.0,31.0,29.72,East,79,0.0,0.0,95,0.00,,,0.17,,2013-02-12 03:21:00,
2013-02-11 22:32:00,32.0,31.0,29.72,East,79,0.0,0.0,95,0.00,,,0.17,,2013-02-12 03:32:00,
2013-02-11 22:42:00,32.0,31.0,29.72,East,79,0.0,0.0,95,0.00,,,0.17,,2013-02-12 03:42:00,
2013-02-11 22:52:00,32.0,31.0,29.69,East,79,0.0,0.0,95,0.00,,,0.17,,2013-02-12 03:52:00,
2013-02-11 23:01:00,32.0,31.0,29.69,East,79,0.0,0.0,95,0.00,,,0.17,,2013-02-12 04:01:00,
2013-02-11 23:11:00,32.0,31.0,29.69,East,79,0.0,0.0,95,0.00,,,0.17,,2013-02-12 04:11:00,
2013-02-11 23:21:00,33.0,32.0,29.69,East,79,0.0,0.0,95,0.00,,,0.17,,2013-02-12 04:21:00,
2013-02-11 23:32:00,33.0,32.0,29.69,East,79,0.0,0.0,95,0.00,,,0.17,,2013-02-12 04:32:00,
2013-02-11 23:42:00,33.0,32.0,29.69,East,79,0.0,0.0,95,0.00,,,0.17,,2013-02-12 04:42:00,
2013-02-11 23:52:00,33.0,32.0,29.70,East,79,0.0,0.0,95,0.00,,,0.17,,2013-02-12 04:52:00,